,,Stat6,,Stat2,,Stat8,,Stat9,,Stat10,,Wind1,,Wind1,
time,status,PA1M_AVG,status,PR1M_SUM,status,RH1M_AVG,status,SR1M_AVG,status,TA1M_AVG,status,W1dAve1m,status,W1sAve1m,
2003-12-21, 00:00:01,VALID,920.686,VALID,0,VALID,99.6378,VALID,-0.101885,VALID,18.385,VALID,118,VALID,1.15341,
2003-12-21, 00:01:01,VALID,920.693,VALID,0,VALID,99.7536,VALID,-0.0679233,VALID,18.3751,VALID,122,VALID,1.30335,
2003-12-21, 00:02:00,VALID,920.692,VALID,0,VALID,99.8121,VALID,-0.0679233,VALID,18.3656,VALID,125,VALID,1.31882,
2003-12-21, 00:03:00,VALID,920.699,VALID,0,VALID,99.9049,VALID,-0.0849042,VALID,18.3686,VALID,121,VALID,1.1377,
2003-12-21, 00:04:00,VALID,920.69,VALID,0,VALID,99.9354,VALID,-0.101885,VALID,18.352,VALID,119,VALID,1.33194,
2003-12-21, 00:05:01,VALID,920.69,VALID,0,VALID,99.9494,VALID,-0.0679233,VALID,18.3463,VALID,94,VALID,0.793826,
2003-12-21, 00:06:00,VALID,920.674,VALID,0,VALID,99.9583,VALID,-0.0849042,VALID,18.3333,VALID,94,VALID,0.903392,
2003-12-21, 00:07:00,VALID,920.659,VALID,0,VALID,99.9672,VALID,-0.101885,VALID,18.3103,VALID,100,VALID,0.968572,
2003-12-21, 00:08:00,VALID,920.65,VALID,0,VALID,99.9606,VALID,-0.0849042,VALID,18.3172,VALID,110,VALID,0.965259,
2003-12-21, 00:09:01,VALID,920.647,VALID,0,VALID,99.9367,VALID,-0.101885,VALID,18.2812,VALID,111,VALID,1.19736,
2003-12-21, 00:10:00,VALID,920.643,VALID,0,VALID,99.8845,VALID,-0.0679233,VALID,18.2948,VALID,109,VALID,1.01029,
2003-12-21, 00:11:00,VALID,920.637,VALID,0,VALID,99.8795,VALID,-0.101885,VALID,18.2847,VALID,106,VALID,0.913154,
2003-12-21, 00:12:00,VALID,920.638,VALID,0,VALID,99.8718,VALID,-0.0849042,VALID,18.2978,VALID,122,VALID,1.08441,
2003-12-21, 00:13:01,VALID,920.648,VALID,0,VALID,99.9316,VALID,-0.0849042,VALID,18.3167,VALID,128,VALID,1.22694,
2003-12-21, 00:14:01,VALID,920.637,VALID,0,VALID,99.8413,VALID,-0.101885,VALID,18.3689,VALID,124,VALID,1.03348,
2003-12-21, 00:15:00,VALID,920.636,VALID,0,VALID,99.6315,VALID,-0.0849042,VALID,18.388,VALID,121,VALID,1.08685,
2003-12-21, 00:16:00,VALID,920.628,VALID,0,VALID,99.4369,VALID,-0.101885,VALID,18.4141,VALID,125,VALID,0.978087,
2003-12-21, 00:17:00,VALID,920.636,VALID,0,VALID,99.1419,VALID,-0.101885,VALID,18.4108,VALID,126,VALID,1.00908,
2003-12-21, 00:18:00,VALID,920.627,VALID,0,VALID,98.9753,VALID,-0.0679233,VALID,18.4106,VALID,136,VALID,0.785974,
2003-12-21, 00:19:00,VALID,920.623,VALID,0,VALID,98.7655,VALID,-0.0849042,VALID,18.4302,VALID,120,VALID,0.618459,
2003-12-21, 00:20:01,VALID,920.596,VALID,0,VALID,98.6689,VALID,-0.0849042,VALID,18.4171,VALID,108,VALID,0.826736,
2003-12-21, 00:21:01,VALID,920.576,VALID,0,VALID,98.5519,VALID,-0.0849042,VALID,18.4104,VALID,116,VALID,1.00539,
2003-12-21, 00:22:01,VALID,920.542,VALID,0,VALID,98.4425,VALID,-0.0509425,VALID,18.4072,VALID,106,VALID,0.924162,
2003-12-21, 00:23:00,VALID,920.521,VALID,0,VALID,98.5227,VALID,0,VALID,18.4067,VALID,103,VALID,0.616168,
2003-12-21, 00:24:01,VALID,920.493,VALID,0,VALID,98.5303,VALID,0,VALID,18.4127,VALID,104,VALID,0.322316,
2003-12-21, 00:25:01,VALID,920.479,VALID,0,VALID,98.4565,VALID,0,VALID,18.4097,VALID,115,VALID,0.36843,
2003-12-21, 00:26:01,VALID,920.466,VALID,0,VALID,98.3103,VALID,0.0169808,VALID,18.4002,VALID,114,VALID,0.509811,
2003-12-21, 00:27:00,VALID,920.453,VALID,0,VALID,98.2098,VALID,0,VALID,18.3675,VALID,114,VALID,0.340353,
2003-12-21, 00:28:00,VALID,920.437,VALID,0,VALID,98.3128,VALID,0,VALID,18.3483,VALID,108,VALID,0.419965,
2003-12-21, 00:29:00,VALID,920.425,VALID,0,VALID,98.4184,VALID,0,VALID,18.3483,VALID,108,VALID,0.389535,
2003-12-21, 00:30:01,VALID,920.412,VALID,0,VALID,98.5201,VALID,0.0169808,VALID,18.3347,VALID,112,VALID,0.38244,
2003-12-21, 00:31:00,VALID,920.397,VALID,0,VALID,98.5926,VALID,0.0169808,VALID,18.3739,VALID,107,VALID,0.521205,
2003-12-21, 00:32:00,VALID,920.39,VALID,0,VALID,98.6244,VALID,0.0169808,VALID,18.4161,VALID,102,VALID,0.303571,
2003-12-21, 00:33:00,VALID,920.381,VALID,0,VALID,98.4858,VALID,0,VALID,18.4517,VALID,102,VALID,0.0740327,
2003-12-21, 00:34:00,VALID,920.376,VALID,0,VALID,98.2556,VALID,0.0339617,VALID,18.4676,VALID,102,VALID,0.0293403,
2003-12-21, 00:35:00,VALID,920.384,VALID,0,VALID,97.9848,VALID,0,VALID,18.448,VALID,103,VALID,0.507449,
2003-12-21, 00:36:00,VALID,920.387,VALID,0,VALID,97.8881,VALID,0.0169808,VALID,18.436,VALID,110,VALID,0.492393,
2003-12-21, 00:37:00,VALID,920.383,VALID,0,VALID,97.953,VALID,0.0169808,VALID,18.4131,VALID,134,VALID,0.330305,
2003-12-21, 00:38:00,VALID,920.374,VALID,0,VALID,98.0293,VALID,0,VALID,18.403,VALID,149,VALID,0.175686,
2003-12-21, 00:39:01,VALID,920.382,VALID,0,VALID,97.9809,VALID,0.0169808,VALID,18.3901,VALID,153,VALID,0.598558,
2003-12-21, 00:40:01,VALID,920.394,VALID,0,VALID,98.089,VALID,0.0169808,VALID,18.3901,VALID,149,VALID,0.744093,
2003-12-21, 00:41:01,VALID,920.389,VALID,0,VALID,98.0547,VALID,0,VALID,18.4161,VALID,145,VALID,0.676829,
2003-12-21, 00:42:01,VALID,920.381,VALID,0,VALID,97.9924,VALID,0.0339617,VALID,18.4251,VALID,143,VALID,0.887695,
2003-12-21, 00:43:00,VALID,920.384,VALID,0,VALID,97.8856,VALID,0.0169808,VALID,18.4383,VALID,139,VALID,0.763207,
2003-12-21, 00:44:01,VALID,920.394,VALID,0,VALID,97.8169,VALID,0,VALID,18.4454,VALID,141,VALID,1.03525,
2003-12-21, 00:45:01,VALID,920.384,VALID,0,VALID,97.8411,VALID,0.0169808,VALID,18.4517,VALID,139,VALID,0.928354,
2003-12-21, 00:46:00,VALID,920.387,VALID,0,VALID,97.8538,VALID,0.0169808,VALID,18.4611,VALID,138,VALID,0.655488,
2003-12-21, 00:47:01,VALID,920.371,VALID,0,VALID,97.7953,VALID,0,VALID,18.4747,VALID,140,VALID,0.750174,
2003-12-21, 00:48:01,VALID,920.338,VALID,0,VALID,97.8233,VALID,0,VALID,18.4611,VALID,137,VALID,0.736852,
2003-12-21, 00:49:00,VALID,920.299,VALID,0,VALID,97.8652,VALID,0.0339617,VALID,18.442,VALID,132,VALID,0.761719,
2003-12-21, 00:50:01,VALID,920.28,VALID,0,VALID,98.0089,VALID,0.0169808,VALID,18.4318,VALID,136,VALID,0.596912,
2003-12-21, 00:51:01,VALID,920.261,VALID,0,VALID,97.9008,VALID,0.0169808,VALID,18.4191,VALID,125,VALID,0.555959,
2003-12-21, 00:52:00,VALID,920.245,VALID,0,VALID,97.9059,VALID,0.0169808,VALID,18.3869,VALID,120,VALID,0.771439,
2003-12-21, 00:53:01,VALID,920.238,VALID,0,VALID,98.0216,VALID,-0.0339617,VALID,18.3643,VALID,112,VALID,0.432031,
2003-12-21, 00:54:00,VALID,920.235,VALID,0,VALID,98.056,VALID,0,VALID,18.3322,VALID,113,VALID,0.373547,
2003-12-21, 00:55:01,VALID,920.216,VALID,0,VALID,98.1017,VALID,-0.0169808,VALID,18.3064,VALID,87,VALID,0.415737,
2003-12-21, 00:56:01,VALID,920.201,VALID,0,VALID,98.2149,VALID,0,VALID,18.2907,VALID,89,VALID,0.449886,
2003-12-21, 00:57:00,VALID,920.193,VALID,0,VALID,98.3866,VALID,0,VALID,18.2672,VALID,92,VALID,0.518466,
2003-12-21, 00:58:01,VALID,920.187,VALID,0,VALID,98.4692,VALID,0.0169808,VALID,18.251,VALID,78,VALID,0.543423,
2003-12-21, 00:59:01,VALID,920.17,VALID,0,VALID,98.6765,VALID,-0.0169808,VALID,18.2639,VALID,78,VALID,0.693714,
2003-12-21, 01:00:01,VALID,920.149,VALID,0,VALID,98.955,VALID,0,VALID,18.2969,VALID,88,VALID,0.809896,
2003-12-21, 01:01:01,VALID,920.139,VALID,0,VALID,99.175,VALID,0,VALID,18.3451,VALID,101,VALID,0.769832,
2003-12-21, 01:02:01,VALID,920.119,VALID,0,VALID,99.0351,VALID,0,VALID,18.3709,VALID,116,VALID,0.654204,
2003-12-21, 01:03:01,VALID,920.09,VALID,0,VALID,98.7706,VALID,-0.0169808,VALID,18.3679,VALID,110,VALID,0.820884,
2003-12-21, 01:04:01,VALID,920.08,VALID,0,VALID,98.632,VALID,-0.0169808,VALID,18.3357,VALID,93,VALID,0.757457,
2003-12-21, 01:05:01,VALID,920.083,VALID,0,VALID,98.7999,VALID,0.0339617,VALID,18.326,VALID,95,VALID,0.767531,
2003-12-21, 01:06:01,VALID,920.054,VALID,0,VALID,98.9016,VALID,0.0169808,VALID,18.3327,VALID,105,VALID,0.853981,
2003-12-21, 01:07:01,VALID,920.045,VALID,0,VALID,98.824,VALID,0,VALID,18.3124,VALID,86,VALID,0.589844,
2003-12-21, 01:08:01,VALID,920.039,VALID,0,VALID,98.824,VALID,0,VALID,18.3096,VALID,113,VALID,1.05829,
2003-12-21, 01:09:01,VALID,920.034,VALID,0,VALID,98.7871,VALID,0,VALID,18.3066,VALID,115,VALID,1.01094,
2003-12-21, 01:10:01,VALID,920.018,VALID,0,VALID,98.7795,VALID,-0.0169808,VALID,18.281,VALID,121,VALID,1.21236,
2003-12-21, 01:11:01,VALID,920.007,VALID,0,VALID,98.9537,VALID,0.0169808,VALID,18.2545,VALID,125,VALID,1.163,
2003-12-21, 01:12:01,VALID,919.999,VALID,0,VALID,99.0707,VALID,0,VALID,18.2289,VALID,129,VALID,1.30487,
2003-12-21, 01:13:01,VALID,919.993,VALID,0,VALID,99.1534,VALID,0.0169808,VALID,18.2035,VALID,124,VALID,1.05251,
2003-12-21, 01:14:01,VALID,919.995,VALID,0,VALID,99.3314,VALID,-0.0339617,VALID,18.1811,VALID,126,VALID,1.15339,
2003-12-21, 01:15:01,VALID,919.997,VALID,0,VALID,99.3823,VALID,-0.0339617,VALID,18.1484,VALID,122,VALID,1.10747,
2003-12-21, 01:16:01,VALID,920.009,VALID,0,VALID,99.5794,VALID,-0.0169808,VALID,18.1256,VALID,126,VALID,1.08501,
2003-12-21, 01:17:01,VALID,920.014,VALID,0,VALID,99.6264,VALID,0,VALID,18.1062,VALID,125,VALID,1.07457,
2003-12-21, 01:18:01,VALID,920.02,VALID,0,VALID,99.7141,VALID,0.0339617,VALID,18.0866,VALID,128,VALID,1.1143,
2003-12-21, 01:19:01,VALID,920.029,VALID,0,VALID,99.8744,VALID,-0.0169808,VALID,18.0836,VALID,127,VALID,1.06212,
2003-12-21, 01:20:01,VALID,920.05,VALID,0,VALID,99.9527,VALID,0,VALID,18.0873,VALID,126,VALID,1.02108,
2003-12-21, 01:21:01,VALID,920.059,VALID,0,VALID,100,VALID,0,VALID,18.1062,VALID,116,VALID,1.21745,
2003-12-21, 01:22:01,VALID,920.069,VALID,0,VALID,99.9827,VALID,-0.0169808,VALID,18.1129,VALID,101,VALID,0.779046,
2003-12-21, 01:23:01,VALID,920.085,VALID,0,VALID,99.9532,VALID,-0.0169808,VALID,18.0838,VALID,94,VALID,0.922991,
2003-12-21, 01:24:01,VALID,920.086,VALID,0,VALID,99.9939,VALID,-0.0169808,VALID,18.0808,VALID,94,VALID,0.770419,
2003-12-21, 01:25:01,VALID,920.082,VALID,0,VALID,100,VALID,-0.0169808,VALID,18.0905,VALID,104,VALID,0.963663,
2003-12-21, 01:26:00,VALID,920.067,VALID,0,VALID,100,VALID,0,VALID,18.1163,VALID,101,VALID,1.08289,
2003-12-21, 01:27:00,VALID,920.054,VALID,0,VALID,100,VALID,0,VALID,18.1419,VALID,92,VALID,1.06808,
2003-12-21, 01:28:00,VALID,920.042,VALID,0,VALID,100,VALID,0,VALID,18.1968,VALID,98,VALID,0.917878,
2003-12-21, 01:29:00,VALID,920.042,VALID,0,VALID,100,VALID,-0.0169808,VALID,18.2164,VALID,101,VALID,1.20465,
2003-12-21, 01:30:00,VALID,920.036,VALID,0,VALID,100,VALID,-0.0169808,VALID,18.239,VALID,102,VALID,0.959223,
2003-12-21, 01:31:00,VALID,920.029,VALID,0,VALID,100,VALID,0,VALID,18.2579,VALID,115,VALID,1.3404,
2003-12-21, 01:32:00,VALID,920.021,VALID,0,VALID,99.9952,VALID,0,VALID,18.3001,VALID,109,VALID,1.46766,
2003-12-21, 01:33:00,VALID,920.018,VALID,0,VALID,99.9789,VALID,0,VALID,18.3094,VALID,108,VALID,1.50335,
2003-12-21, 01:34:00,VALID,919.999,VALID,0,VALID,99.9616,VALID,0,VALID,18.3387,VALID,108,VALID,1.62551,
2003-12-21, 01:35:00,VALID,919.984,VALID,0,VALID,99.8756,VALID,0,VALID,18.3421,VALID,113,VALID,1.6101,
2003-12-21, 01:36:00,VALID,919.968,VALID,0,VALID,99.8388,VALID,-0.0169808,VALID,18.3583,VALID,113,VALID,1.73047,
2003-12-21, 01:37:00,VALID,919.946,VALID,0,VALID,99.7879,VALID,0,VALID,18.3576,VALID,105,VALID,1.39348,
2003-12-21, 01:38:00,VALID,919.922,VALID,0,VALID,99.8197,VALID,-0.0169808,VALID,18.3585,VALID,118,VALID,1.7407,
2003-12-21, 01:39:00,VALID,919.904,VALID,0,VALID,99.8286,VALID,-0.0169808,VALID,18.3649,VALID,114,VALID,1.44115,
2003-12-21, 01:40:00,VALID,919.888,VALID,0,VALID,99.8375,VALID,-0.0169808,VALID,18.3553,VALID,121,VALID,1.3729,
2003-12-21, 01:41:00,VALID,919.88,VALID,0,VALID,99.8922,VALID,0,VALID,18.358,VALID,113,VALID,1.30831,
2003-12-21, 01:42:00,VALID,919.863,VALID,0,VALID,99.8464,VALID,0,VALID,18.3749,VALID,85,VALID,0.954799,
2003-12-21, 01:43:00,VALID,919.858,VALID,0,VALID,99.9489,VALID,-0.0339617,VALID,18.3776,VALID,118,VALID,1.56179,
2003-12-21, 01:44:00,VALID,919.852,VALID,0,VALID,99.9036,VALID,-0.0169808,VALID,18.3968,VALID,109,VALID,1.26116,
2003-12-21, 01:45:00,VALID,919.827,VALID,0,VALID,99.91,VALID,0,VALID,18.4131,VALID,117,VALID,1.87028,
2003-12-21, 01:46:00,VALID,919.81,VALID,0,VALID,99.9481,VALID,0,VALID,18.4653,VALID,118,VALID,2.0122,
2003-12-21, 01:47:00,VALID,919.787,VALID,0,VALID,99.7854,VALID,-0.0169808,VALID,18.4872,VALID,114,VALID,1.3314,
2003-12-21, 01:48:00,VALID,919.767,VALID,0,VALID,99.6811,VALID,0,VALID,18.5135,VALID,125,VALID,1.29078,
2003-12-21, 01:49:00,VALID,919.744,VALID,0,VALID,99.5997,VALID,-0.0339617,VALID,18.5257,VALID,116,VALID,1.43285,
2003-12-21, 01:50:00,VALID,919.719,VALID,0,VALID,99.5692,VALID,-0.0169808,VALID,18.5423,VALID,136,VALID,1.63072,
2003-12-21, 01:51:00,VALID,919.69,VALID,0,VALID,99.4738,VALID,-0.0169808,VALID,18.5647,VALID,129,VALID,1.51321,
2003-12-21, 01:52:00,VALID,919.658,VALID,0,VALID,99.2818,VALID,0,VALID,18.5944,VALID,115,VALID,1.1353,
2003-12-21, 01:53:00,VALID,919.635,VALID,0,VALID,99.086,VALID,-0.0339617,VALID,18.5942,VALID,99,VALID,1.03525,
2003-12-21, 01:54:00,VALID,919.615,VALID,0,VALID,99.0198,VALID,-0.0339617,VALID,18.5942,VALID,93,VALID,0.744922,
2003-12-21, 01:55:00,VALID,919.602,VALID,0,VALID,98.9385,VALID,0,VALID,18.5843,VALID,67,VALID,0.809201,
2003-12-21, 01:56:00,VALID,919.575,VALID,0,VALID,98.9715,VALID,0,VALID,18.5845,VALID,56,VALID,0.99295,
2003-12-21, 01:57:00,VALID,919.549,VALID,0,VALID,99.0237,VALID,0,VALID,18.594,VALID,72,VALID,1.01036,
2003-12-21, 01:58:00,VALID,919.529,VALID,0,VALID,99.0529,VALID,-0.0169808,VALID,18.5873,VALID,79,VALID,0.906994,
2003-12-21, 01:59:00,VALID,919.495,VALID,0,VALID,99.0173,VALID,-0.0169808,VALID,18.5808,VALID,63,VALID,0.702398,
2003-12-21, 02:00:00,VALID,919.48,VALID,0,VALID,98.9079,VALID,0,VALID,18.558,VALID,52,VALID,0.715014,
2003-12-21, 02:01:00,VALID,919.444,VALID,0,VALID,98.9397,VALID,0,VALID,18.5485,VALID,90,VALID,0.78561,
2003-12-21, 02:02:00,VALID,919.415,VALID,0,VALID,99.044,VALID,-0.0509425,VALID,18.5358,VALID,84,VALID,0.953307,
2003-12-21, 02:03:00,VALID,919.399,VALID,0,VALID,99.0949,VALID,-0.0509425,VALID,18.5321,VALID,89,VALID,0.650746,
2003-12-21, 02:04:00,VALID,919.375,VALID,0,VALID,99.1076,VALID,-0.0339617,VALID,18.5259,VALID,106,VALID,0.611555,
2003-12-21, 02:05:00,VALID,919.364,VALID,0,VALID,99.2042,VALID,-0.0339617,VALID,18.5296,VALID,123,VALID,0.689986,
2003-12-21, 02:06:00,VALID,919.348,VALID,0,VALID,99.2716,VALID,-0.0339617,VALID,18.516,VALID,124,VALID,0.55692,
2003-12-21, 02:07:00,VALID,919.313,VALID,0,VALID,99.2538,VALID,0.0339617,VALID,18.519,VALID,121,VALID,0.430596,
2003-12-21, 02:08:00,VALID,919.288,VALID,0,VALID,99.2564,VALID,0.0849042,VALID,18.4987,VALID,121,VALID,0.644259,
2003-12-21, 02:09:00,VALID,919.262,VALID,0,VALID,99.2678,VALID,0.0849042,VALID,18.5054,VALID,121,VALID,0.666481,
2003-12-21, 02:10:00,VALID,919.234,VALID,0,VALID,99.2322,VALID,0.101885,VALID,18.4895,VALID,120,VALID,0.611793,
2003-12-21, 02:11:00,VALID,919.214,VALID,0,VALID,99.292,VALID,0.0849042,VALID,18.4731,VALID,120,VALID,0.669829,
2003-12-21, 02:12:00,VALID,919.185,VALID,0,VALID,99.2742,VALID,0.0679233,VALID,18.4503,VALID,119,VALID,0.67351,
2003-12-21, 02:13:00,VALID,919.156,VALID,0,VALID,99.3479,VALID,0.0849042,VALID,18.4344,VALID,112,VALID,0.685082,
2003-12-21, 02:14:00,VALID,919.144,VALID,0,VALID,99.292,VALID,0.0679233,VALID,18.4182,VALID,101,VALID,0.533482,
2003-12-21, 02:15:00,VALID,919.126,VALID,0,VALID,99.133,VALID,0.0849042,VALID,18.3827,VALID,85,VALID,0.520279,
2003-12-21, 02:16:00,VALID,919.131,VALID,0,VALID,99.0224,VALID,0.101885,VALID,18.3048,VALID,70,VALID,0.569618,
2003-12-21, 02:17:00,VALID,919.141,VALID,0,VALID,99.0097,VALID,0.0509425,VALID,18.2826,VALID,61,VALID,0.679501,
2003-12-21, 02:18:00,VALID,919.147,VALID,0,VALID,99.1038,VALID,0.0509425,VALID,18.2662,VALID,60,VALID,0.714749,
2003-12-21, 02:19:00,VALID,919.145,VALID,0,VALID,99.2678,VALID,0.0509425,VALID,18.2732,VALID,58,VALID,0.650436,
2003-12-21, 02:20:00,VALID,919.137,VALID,0,VALID,99.3861,VALID,0.0679233,VALID,18.2928,VALID,56,VALID,0.788352,
2003-12-21, 02:21:00,VALID,919.128,VALID,0,VALID,99.5158,VALID,0.0849042,VALID,18.3154,VALID,55,VALID,0.762251,
2003-12-21, 02:22:00,VALID,919.111,VALID,0,VALID,99.6404,VALID,0.0169808,VALID,18.3449,VALID,55,VALID,0.606898,
2003-12-21, 02:23:00,VALID,919.096,VALID,0,VALID,99.6849,VALID,-0.0339617,VALID,18.3714,VALID,55,VALID,0.496951,
2003-12-21, 02:24:00,VALID,919.071,VALID,0,VALID,99.6556,VALID,-0.0339617,VALID,18.3841,VALID,55,VALID,0.372514,
2003-12-21, 02:25:00,VALID,919.059,VALID,0,VALID,99.3873,VALID,-0.0169808,VALID,18.355,VALID,55,VALID,0.0600229,
2003-12-21, 02:26:00,VALID,919.038,VALID,0,VALID,99.1712,VALID,0,VALID,18.2872,VALID,55,VALID,0.122332,
2003-12-21, 02:27:00,VALID,919.025,VALID,0,VALID,99.0898,VALID,-0.0509425,VALID,18.2584,VALID,55,VALID,0.180729,
2003-12-21, 02:28:00,VALID,919.018,VALID,0,VALID,98.8456,VALID,-0.0509425,VALID,18.2033,VALID,55,VALID,0.363758,
2003-12-21, 02:29:00,VALID,918.991,VALID,0,VALID,98.6714,VALID,-0.0169808,VALID,18.1389,VALID,55,VALID,0.332617,
2003-12-21, 02:30:00,VALID,918.988,VALID,0,VALID,98.5824,VALID,0,VALID,18.0744,VALID,55,VALID,0.267442,
2003-12-21, 02:31:00,VALID,918.98,VALID,0,VALID,98.7554,VALID,0,VALID,18.0317,VALID,55,VALID,0.229288,
2003-12-21, 02:32:00,VALID,918.962,VALID,0,VALID,98.9588,VALID,-0.0339617,VALID,18.0259,VALID,55,VALID,0.105769,
2003-12-21, 02:33:00,VALID,918.949,VALID,0,VALID,99.1902,VALID,-0.0169808,VALID,18.0319,VALID,55,VALID,0.0100446,
2003-12-21, 02:34:00,VALID,918.951,VALID,0,VALID,99.3441,VALID,-0.0339617,VALID,18.0483,VALID,55,VALID,0,
2003-12-21, 02:35:00,VALID,918.938,VALID,0,VALID,99.4001,VALID,-0.0169808,VALID,18.0414,VALID,55,VALID,0.130859,
2003-12-21, 02:36:00,VALID,918.922,VALID,0,VALID,99.3644,VALID,-0.0169808,VALID,18.0324,VALID,55,VALID,0.446243,
2003-12-21, 02:37:00,VALID,918.894,VALID,0,VALID,99.648,VALID,-0.0509425,VALID,18.0328,VALID,77,VALID,0.511719,
2003-12-21, 02:38:00,VALID,918.883,VALID,0,VALID,99.999,VALID,-0.0339617,VALID,18.097,VALID,85,VALID,0.621466,
2003-12-21, 02:39:00,VALID,918.876,VALID,0,VALID,100,VALID,-0.0169808,VALID,18.1811,VALID,96,VALID,0.656622,
2003-12-21, 02:40:00,VALID,918.869,VALID,0,VALID,100,VALID,-0.0679233,VALID,18.2199,VALID,104,VALID,0.734028,
2003-12-21, 02:41:00,VALID,918.867,VALID,0,VALID,99.9257,VALID,-0.0679233,VALID,18.21,VALID,112,VALID,0.777166,
2003-12-21, 02:42:00,VALID,918.856,VALID,0,VALID,99.7205,VALID,-0.0509425,VALID,18.1553,VALID,125,VALID,0.974466,
2003-12-21, 02:43:00,VALID,918.857,VALID,0,VALID,99.7396,VALID,-0.0509425,VALID,18.1096,VALID,126,VALID,0.948401,
2003-12-21, 02:44:00,VALID,918.836,VALID,0,VALID,99.7243,VALID,-0.101885,VALID,18.0907,VALID,128,VALID,1.1875,
2003-12-21, 02:45:00,VALID,918.82,VALID,0,VALID,99.69,VALID,-0.0509425,VALID,18.0711,VALID,123,VALID,1.38459,
2003-12-21, 02:46:00,VALID,918.811,VALID,0,VALID,99.7752,VALID,-0.0169808,VALID,18.0518,VALID,120,VALID,1.2623,
2003-12-21, 02:47:00,VALID,918.783,VALID,0,VALID,99.8171,VALID,-0.0169808,VALID,18.0548,VALID,108,VALID,1.18006,
2003-12-21, 02:48:00,VALID,918.779,VALID,0,VALID,99.9227,VALID,-0.0169808,VALID,18.0808,VALID,109,VALID,1.14238,
2003-12-21, 02:49:00,VALID,918.752,VALID,0,VALID,99.943,VALID,-0.0679233,VALID,18.0877,VALID,100,VALID,0.821057,
2003-12-21, 02:50:00,VALID,918.75,VALID,0,VALID,99.8973,VALID,-0.0509425,VALID,18.1036,VALID,102,VALID,0.902902,
2003-12-21, 02:51:00,VALID,918.746,VALID,0,VALID,99.8616,VALID,-0.0679233,VALID,18.0905,VALID,99,VALID,0.76478,
2003-12-21, 02:52:00,VALID,918.746,VALID,0,VALID,99.9148,VALID,-0.0339617,VALID,18.0834,VALID,122,VALID,1.30145,
2003-12-21, 02:53:00,VALID,918.729,VALID,0,VALID,99.9906,VALID,0.0679233,VALID,18.115,VALID,125,VALID,1.16655,
2003-12-21, 02:54:00,VALID,918.731,VALID,0,VALID,99.999,VALID,0.0679233,VALID,18.144,VALID,125,VALID,1.28516,
2003-12-21, 02:55:00,VALID,918.707,VALID,0,VALID,100,VALID,0.0339617,VALID,18.1438,VALID,128,VALID,1.35404,
2003-12-21, 02:56:00,VALID,918.678,VALID,0,VALID,100,VALID,0.0849042,VALID,18.1765,VALID,128,VALID,1.37148,
2003-12-21, 02:57:00,VALID,918.663,VALID,0,VALID,99.9855,VALID,0.0509425,VALID,18.1934,VALID,122,VALID,1.09691,
2003-12-21, 02:58:00,VALID,918.668,VALID,0,VALID,99.9807,VALID,0.0169808,VALID,18.1763,VALID,110,VALID,1.04066,
2003-12-21, 02:59:00,VALID,918.668,VALID,0,VALID,100,VALID,0.0849042,VALID,18.1924,VALID,103,VALID,0.978766,
2003-12-21, 03:00:00,VALID,918.661,VALID,0,VALID,100,VALID,0.0509425,VALID,18.215,VALID,104,VALID,0.849657,
2003-12-21, 03:01:00,VALID,918.66,VALID,0,VALID,99.9908,VALID,0.101885,VALID,18.2084,VALID,111,VALID,0.849276,
2003-12-21, 03:02:00,VALID,918.659,VALID,0,VALID,99.9929,VALID,0.0509425,VALID,18.2153,VALID,121,VALID,0.889737,
2003-12-21, 03:03:00,VALID,918.651,VALID,0,VALID,99.9634,VALID,0.0509425,VALID,18.2116,VALID,120,VALID,0.604048,
2003-12-21, 03:04:00,VALID,918.667,VALID,0,VALID,99.9329,VALID,0.0509425,VALID,18.2254,VALID,114,VALID,0.914931,
2003-12-21, 03:05:00,VALID,918.669,VALID,0,VALID,99.9352,VALID,0.0509425,VALID,18.2381,VALID,123,VALID,0.723011,
2003-12-21, 03:06:00,VALID,918.675,VALID,0,VALID,99.9112,VALID,0.0339617,VALID,18.2312,VALID,133,VALID,0.374653,
2003-12-21, 03:07:00,VALID,918.688,VALID,0,VALID,99.8795,VALID,-0.0339617,VALID,18.2284,VALID,139,VALID,0.597656,
2003-12-21, 03:08:00,VALID,918.679,VALID,0,VALID,99.8922,VALID,-0.0339617,VALID,18.2455,VALID,140,VALID,0.687872,
2003-12-21, 03:09:00,VALID,918.686,VALID,0,VALID,99.9151,VALID,-0.0169808,VALID,18.2579,VALID,131,VALID,0.757267,
2003-12-21, 03:10:00,VALID,918.694,VALID,0,VALID,99.8515,VALID,-0.0509425,VALID,18.2616,VALID,120,VALID,0.7,
2003-12-21, 03:11:00,VALID,918.698,VALID,0,VALID,99.8489,VALID,-0.0509425,VALID,18.2681,VALID,119,VALID,0.580031,
2003-12-21, 03:12:00,VALID,918.691,VALID,0,VALID,99.8019,VALID,-0.0339617,VALID,18.2812,VALID,100,VALID,0.56907,
2003-12-21, 03:13:00,VALID,918.687,VALID,0,VALID,99.8273,VALID,-0.0169808,VALID,18.2875,VALID,92,VALID,0.781622,
2003-12-21, 03:14:00,VALID,918.699,VALID,0,VALID,99.9125,VALID,-0.0509425,VALID,18.3101,VALID,101,VALID,0.818714,
2003-12-21, 03:15:00,VALID,918.683,VALID,0,VALID,99.8515,VALID,-0.0169808,VALID,18.326,VALID,101,VALID,0.685976,
2003-12-21, 03:16:00,VALID,918.669,VALID,0,VALID,99.8324,VALID,-0.0339617,VALID,18.3619,VALID,101,VALID,0.679501,
2003-12-21, 03:17:00,VALID,918.658,VALID,0,VALID,99.7319,VALID,0,VALID,18.3652,VALID,104,VALID,0.799237,
2003-12-21, 03:18:00,VALID,918.637,VALID,0,VALID,99.6366,VALID,-0.0339617,VALID,18.3488,VALID,109,VALID,0.99272,
2003-12-21, 03:19:00,VALID,918.62,VALID,0,VALID,99.6506,VALID,-0.0169808,VALID,18.3453,VALID,101,VALID,0.87138,
2003-12-21, 03:20:00,VALID,918.622,VALID,0,VALID,99.5972,VALID,-0.0169808,VALID,18.3384,VALID,93,VALID,0.807813,
2003-12-21, 03:21:00,VALID,918.621,VALID,0,VALID,99.5501,VALID,-0.0339617,VALID,18.3417,VALID,92,VALID,0.93843,
2003-12-21, 03:22:00,VALID,918.63,VALID,0,VALID,99.414,VALID,-0.0169808,VALID,18.3329,VALID,65,VALID,0.904797,
2003-12-21, 03:23:00,VALID,918.647,VALID,0,VALID,99.2462,VALID,-0.0509425,VALID,18.2907,VALID,60,VALID,1.18377,
2003-12-21, 03:24:00,VALID,918.663,VALID,0,VALID,99.1724,VALID,-0.0509425,VALID,18.2718,VALID,60,VALID,1.04581,
2003-12-21, 03:25:00,VALID,918.671,VALID,0,VALID,99.2754,VALID,-0.0339617,VALID,18.2616,VALID,64,VALID,1.26563,
2003-12-21, 03:26:00,VALID,918.674,VALID,0,VALID,99.3746,VALID,-0.0509425,VALID,18.2718,VALID,75,VALID,1.11607,
2003-12-21, 03:27:00,VALID,918.665,VALID,0,VALID,99.4102,VALID,-0.0849042,VALID,18.2745,VALID,77,VALID,0.946221,
2003-12-21, 03:28:00,VALID,918.648,VALID,0,VALID,99.5196,VALID,-0.0339617,VALID,18.2778,VALID,89,VALID,1.02108,
2003-12-21, 03:29:00,VALID,918.645,VALID,0,VALID,99.6455,VALID,-0.0169808,VALID,18.2845,VALID,90,VALID,1.08648,
2003-12-21, 03:30:00,VALID,918.617,VALID,0,VALID,99.8146,VALID,-0.0509425,VALID,18.3264,VALID,101,VALID,1.00306,
2003-12-21, 03:31:00,VALID,918.604,VALID,0,VALID,99.7892,VALID,-0.0679233,VALID,18.3421,VALID,109,VALID,0.849888,
2003-12-21, 03:32:00,VALID,918.591,VALID,0,VALID,99.6785,VALID,-0.0679233,VALID,18.3589,VALID,123,VALID,0.874637,
2003-12-21, 03:33:00,VALID,918.586,VALID,0,VALID,99.5794,VALID,-0.101885,VALID,18.3396,VALID,131,VALID,0.941883,
2003-12-21, 03:34:00,VALID,918.579,VALID,0,VALID,99.6048,VALID,-0.0849042,VALID,18.3396,VALID,131,VALID,1.09756,
2003-12-21, 03:35:00,VALID,918.577,VALID,0,VALID,99.5387,VALID,-0.0679233,VALID,18.3329,VALID,130,VALID,0.8621,